• MPC Preparation (Info)

  • MPEC 2019-V85 : 2019 VB3

    The following Minor Planet Electronic Circular may be linked-to from your own Web pages, but must not otherwise be redistributed electronically.

    A form allowing access to any MPEC is at the bottom of this page.


    Read MPEC 2019-V84 Read MPEC 2019-V86


    M.P.E.C. 2019-V85                              Issued 2019 November 6, 21:50 UT
    
         The Minor Planet Electronic Circulars contain information on unusual
             minor planets and routine data on comets.  They are published
        on behalf of Division F of the International Astronomical Union by the
              Minor Planet Center, Smithsonian Astrophysical Observatory,
                              Cambridge, MA 02138, U.S.A.
    
                 Prepared using the Tamkin Foundation Computer Network
    
                                  MPC@CFA.HARVARD.EDU
                URL https://www.minorplanetcenter.net/    ISSN 1523-6714
    
                                    2019 VB3                                 
    
    
    Observations:
         K19V03B  C2019 11 02.51031903 19 49.243+26 59 34.68         21.4 GVEV085F51
         K19V03B  C2019 11 02.54530303 20 10.760+26 58 23.09         21.6 GVEV085F51
         K19V03B* C2019 11 05.36212 03 54 11.49 +25 19 36.0          21.3 GVEV085G96
         K19V03B  C2019 11 05.37237 03 54 17.57 +25 19 09.8          21.2 GVEV085G96
         K19V03B  C2019 11 05.37750 03 54 20.64 +25 18 57.3          21.4 GVEV085G96
         K19V03B  C2019 11 05.46790203 55 14.68 +25 14 36.7          20.7 GVEV085H01
         K19V03B  C2019 11 05.47743703 55 20.67 +25 14 08.7          21.7 GVEV085H01
         K19V03B  C2019 11 05.48168503 55 23.36 +25 13 56.1          21.5 GVEV085H01
         K19V03B  C2019 11 05.48887203 55 27.94 +25 13 34.7          21.7 GVEV085H01
         K19V03B  C2019 11 06.32429 04 05 28.01 +24 38 57.7          21.3 GVEV085G96
         K19V03B  C2019 11 06.32591 04 05 28.91 +24 38 53.7          21.1 GVEV085G96
         K19V03B  C2019 11 06.32754 04 05 29.86 +24 38 49.1          22.2 GVEV085G96
    
    Observer details:
    F51 Pan-STARRS 1, Haleakala.  Observers J. Bulger, K. Chambers, T. Lowe, E. 
       Magnier, A. Schultz, M. Willman.  Measurers S. Chastel, M. Huber, Y. 
       Ramanjooloo, R. Wainscoat, R. Weryk.  1.8-m Ritchey-Chretien + CCD.
    G96 Mt. Lemmon Survey.  Observer E. J. Christensen.  Measurers E. J. 
       Christensen, G. A. Farneth, D. C. Fuls, A. R. Gibbs, A. D. Grauer, H. 
       Groeller, R. A. Kowalski, S. M. Larson, G. J. Leonard, T. A. Pruyne, D. 
       Rankin, R. L. Seaman, F. C. Shelly, K. W. Wierzchos.  1.5-m reflector + 10K 
       CCD.
    H01 Magdalena Ridge Observatory, Socorro.  Observers W. H. Ryan, E. V. Ryan.  
        Measurer W. H. Ryan.  2.4-m f/8.9 Ritchey-Chretien + CCD.
    
    Orbital elements:
    2019 VB3                                                 Earth MOID = 0.0290 AU
    Epoch 2019 Apr. 27.0 TT = JDT 2458600.5                 Bell
    M 222.92310              (2000.0)            P               Q
    n   0.69039363     Peri.  181.94737     +0.65110237     -0.75859362
    a   1.2678607      Node   227.42891     +0.69680899     +0.61025654
    e   0.1960488      Incl.    1.90834     +0.30087029     +0.22830391
    P   1.43           H   28.4           G   0.15           U   6
    Residuals in seconds of arc
    191102 F51  0.2-  0.1+    191105 G96  0.3+  0.4+    191105 H01  0.0   0.2-
    191102 F51  0.3+  0.1-    191105 H01  0.1+  0.3-    191106 G96  0.3+  0.2+
    191105 G96  0.2-  0.2+    191105 H01  0.1-  0.2-    191106 G96  0.2-  0.3+
    191105 G96  0.1-  0.2-    191105 H01  0.1-  0.2-    191106 G96  0.1-  0.2-
    
    Ephemeris:
    2019 VB3                 a,e,i = 1.27, 0.20, 2                   q = 1.0193
    Date    TT    R. A. (2000) Decl.     Delta      r    Elong.  Phase     V
    2019 10 07    23 59 32.6 +22 22 17   0.05668 1.0528   159.2    19.8    23.3
    ...
    2019 10 22    01 16 58.3 +27 32 45   0.03691 1.0306   162.1    17.3    22.2
    ...
    2019 10 30    02 37 43.8 +28 08 38   0.03108 1.0232   164.4    15.1    21.7
    ...
    2019 11 05    03 49 55.9 +25 34 39   0.02994 1.0199   160.4    19.0    21.8
    2019 11 06    04 01 39.6 +24 53 41   0.03005 1.0196   159.3    20.1    21.8
    2019 11 07    04 13 05.4 +24 09 26   0.03023 1.0193   158.1    21.3    21.9
    ...
    2019 11 13    05 12 44.2 +19 08 34   0.03289 1.0186   151.0    28.1    22.3
    ...
    2019 11 21    06 05 32.2 +13 00 17   0.03955 1.0208   145.3    33.4    22.8
    ...
    2019 12 06    06 47 44.6 +06 43 52   0.05751 1.0341   147.1    31.2    23.6
    
    A. U. Tomatic                (C) Copyright 2019 MPC           M.P.E.C. 2019-V85
    


    Read MPEC 2019-V84 Read MPEC 2019-V86


    MPEC number:

    Enter an MPEC number in one of the following forms:

    • 1997-B01 (the full form)
    • J97B01 (the packed version of the full form)
    • B01 (the abbreviated form)